| time (UTC) | temp F | wind direction | speed MPH | gust MPH | rain 1hr in | rain 24hr in | rain mn in | humidity % | barometer mb |
| 20260906084517 | 58 | 0.0 | 0.0 | 0.00 | 0.00 | 0.00 | 97 | 1021.9 | |
| 20260906083521 | 58 | 0.0 | 0.0 | 0.00 | 0.00 | 0.00 | 97 | 1021.8 | |
| 20260906082521 | 58 | 0.0 | 0.0 | 0.00 | 0.00 | 0.00 | 96 | 1021.6 | |
| 20260906081519 | 59 | 0.0 | 0.0 | 0.00 | 0.00 | 0.00 | 96 | 1021.7 | |
| 20260906080517 | 59 | 0.0 | 0.0 | 0.00 | 0.00 | 0.00 | 97 | 1021.6 | |
| 20260906075537 | 59 | 0.0 | 0.0 | 0.00 | 0.00 | 0.00 | 97 | 1021.4 | |
| 20260906074527 | 59 | 0.0 | 0.0 | 0.00 | 0.00 | 0.00 | 97 | 1021.7 | |
| 20260906073516 | 59 | 0.0 | 0.0 | 0.00 | 0.00 | 0.00 | 97 | 1021.8 | |
| 20260906072542 | 59 | 0.0 | 0.0 | 0.00 | 0.00 | 0.00 | 96 | 1021.8 | |
| 20260906071516 | 59 | 0.0 | 0.0 | 0.00 | 0.00 | 0.00 | 96 | 1021.7 | |
| 20260906070516 | 59 | 0.0 | 0.0 | 0.00 | 0.00 | 0.00 | 96 | 1021.6 | |
| 20260906065516 | 60 | 0.0 | 1.0 | 0.00 | 0.00 | 0.00 | 97 | 1021.6 | |
| 20260906064516 | 59 | 0.0 | 1.0 | 0.00 | 0.00 | 0.00 | 97 | 1021.5 | |
| 20260906063516 | 59 | 0.0 | 0.0 | 0.00 | 0.00 | 0.00 | 96 | 1021.5 | |
| 20260906062516 | 59 | 0.0 | 0.0 | 0.00 | 0.00 | 0.00 | 96 | 1021.5 | |
| 20260906061516 | 59 | 0.0 | 0.0 | 0.00 | 0.00 | 0.00 | 96 | 1021.5 | |
| 20260906060516 | 60 | 0.0 | 0.0 | 0.00 | 0.00 | 0.00 | 97 | 1021.3 | |
| 20260906055516 | 59 | 0.0 | 0.0 | 0.00 | 0.00 | 0.00 | 96 | 1021.1 | |
| 20260906054515 | 60 | 0.0 | 0.0 | 0.00 | 0.00 | 0.00 | 96 | 1021.1 | |
| 20260906053516 | 60 | 0.0 | 0.0 | 0.00 | 0.00 | 0.00 | 96 | 1021.1 | |
| 20260906052516 | 60 | 0.0 | 0.0 | 0.00 | 0.00 | 0.00 | 96 | 1020.8 | |
| 20260906051516 | 61 | 0.0 | 0.0 | 0.00 | 0.00 | 0.00 | 96 | 1020.6 | |
| 20260906050519 | 61 | 0.0 | 0.0 | 0.00 | 0.00 | 0.00 | 96 | 1020.6 | |
| 20260906045516 | 61 | 0.0 | 0.0 | 0.00 | 0.00 | 0.00 | 96 | 1020.6 | |
| 20260906044516 | 61 | 0.0 | 0.0 | 0.00 | 0.00 | 0.00 | 95 | 1020.4 | |
| 20260906043516 | 62 | 0.0 | 0.0 | 0.00 | 0.00 | 0.00 | 95 | 1020.6 | |
| 20260906042516 | 62 | 0.0 | 0.0 | 0.00 | 0.00 | 0.00 | 93 | 1020.5 | |
| 20260906041516 | 62 | 0.0 | 0.0 | 0.00 | 0.00 | 0.00 | 94 | 1020.5 | |
| 20260906040516 | 62 | 0.0 | 0.0 | 0.00 | 0.00 | 0.00 | 93 | 1020.4 | |
| 20260906035516 | 63 | 0.0 | 0.0 | 0.00 | 0.00 | 0.00 | 93 | 1020.5 | |
| 20260906034516 | 63 | 0.0 | 0.0 | 0.00 | 0.00 | 0.00 | 93 | 1020.4 | |
| 20260906033536 | 63 | 0.0 | 0.0 | 0.00 | 0.00 | 0.00 | 91 | 1020.3 | |
| 20260906032515 | 64 | 0.0 | 0.0 | 0.00 | 0.00 | 0.00 | 92 | 1020.4 | |
| 20260906031536 | 64 | 0.0 | 0.0 | 0.00 | 0.00 | 0.00 | 92 | 1020.4 | |
| 20260906030515 | 63 | 0.0 | 0.0 | 0.00 | 0.00 | 0.00 | 95 | 1020.2 | |
| 20260906025516 | 63 | 0.0 | 0.0 | 0.00 | 0.00 | 0.00 | 95 | 1020.1 | |
| 20260906024515 | 63 | 0.0 | 0.0 | 0.00 | 0.00 | 0.00 | 95 | 1020.0 | |
| 20260906023516 | 63 | 0.0 | 0.0 | 0.00 | 0.00 | 0.00 | 93 | 1020.1 | |
| 20260906022536 | 63 | 0.0 | 0.0 | 0.00 | 0.00 | 0.00 | 94 | 1020.0 | |
| 20260906021536 | 63 | 0.0 | 0.0 | 0.00 | 0.00 | 0.00 | 94 | 1020.0 | |
| 20260906020516 | 63 | 0.0 | 0.0 | 0.00 | 0.00 | 0.00 | 92 | 1020.1 | |
| 20260906015515 | 64 | 0.0 | 0.0 | 0.00 | 0.00 | 0.00 | 91 | 1020.0 | |
| 20260906014515 | 64 | 0.0 | 0.0 | 0.00 | 0.00 | 0.00 | 90 | 1020.0 | |
| 20260906013515 | 65 | 0.0 | 0.0 | 0.00 | 0.00 | 0.00 | 89 | 1019.9 | |
| 20260906012515 | 65 | 0.0 | 0.0 | 0.00 | 0.00 | 0.00 | 89 | 1019.9 | |
| 20260906011517 | 66 | 0.0 | 0.0 | 0.00 | 0.00 | 0.00 | 88 | 1019.8 | |
| 20260906010517 | 66 | 0.0 | 0.0 | 0.00 | 0.00 | 0.00 | 88 | 1019.9 | |
| 20260906005516 | 66 | 0.0 | 0.0 | 0.00 | 0.00 | 0.00 | 87 | 1019.8 | |
| 20260906004517 | 67 | 0.0 | 0.0 | 0.00 | 0.00 | 0.00 | 85 | 1019.8 | |
| 20260906003539 | 67 | 0.0 | 1.0 | 0.00 | 0.00 | 0.00 | 85 | 1019.6 | |
| 20260906002518 | 68 | 0.0 | 0.0 | 0.00 | 0.00 | 0.00 | 85 | 1019.8 | |
| 20260906001518 | 68 | 0.0 | 1.0 | 0.00 | 0.00 | 0.00 | 84 | 1019.6 | |
| 20260906000519 | 69 | 0.0 | 2.0 | 0.00 | 0.00 | 0.00 | 82 | 1019.6 | |
| 20260905235538 | 70 | 0.0 | 1.0 | 0.00 | 0.00 | 0.00 | 83 | 1019.7 | |
| 20260905234517 | 71 | 0.0 | 2.0 | 0.00 | 0.00 | 0.00 | 82 | 1019.7 | |
| 20260905233517 | 71 | 0.0 | 3.0 | 0.00 | 0.00 | 0.00 | 80 | 1019.8 | |
| 20260905232557 | 72 | 68 | 1.0 | 3.0 | 0.00 | 0.00 | 0.00 | 79 | 1019.8 |
| 20260905231517 | 72 | 45 | 1.0 | 5.0 | 0.00 | 0.00 | 0.00 | 77 | 1019.8 |
| 20260905230517 | 73 | 68 | 1.0 | 4.0 | 0.00 | 0.00 | 0.00 | 78 | 1019.9 |
| 20260905225517 | 73 | 45 | 2.0 | 6.0 | 0.00 | 0.00 | 0.00 | 77 | 1020.1 |
| 20260905224517 | 73 | 45 | 1.0 | 4.0 | 0.00 | 0.00 | 0.00 | 77 | 1020.0 |
| 20260905223517 | 73 | 45 | 4.0 | 7.0 | 0.00 | 0.00 | 0.00 | 75 | 1019.7 |
| 20260905222517 | 74 | 68 | 3.0 | 6.0 | 0.00 | 0.00 | 0.00 | 77 | 1019.8 |
| 20260905221517 | 74 | 68 | 2.0 | 6.0 | 0.00 | 0.00 | 0.00 | 77 | 1019.7 |
| 20260905220537 | 74 | 68 | 2.0 | 7.0 | 0.00 | 0.00 | 0.00 | 76 | 1019.7 |
| 20260905215518 | 74 | 45 | 2.0 | 8.0 | 0.00 | 0.00 | 0.00 | 79 | 1019.6 |
| 20260905214517 | 75 | 68 | 3.0 | 7.0 | 0.00 | 0.00 | 0.00 | 77 | 1019.7 |
| 20260905213517 | 75 | 45 | 3.0 | 6.0 | 0.00 | 0.00 | 0.00 | 78 | 1019.8 |
| 20260905212517 | 75 | 45 | 3.0 | 7.0 | 0.00 | 0.00 | 0.00 | 79 | 1019.8 |
| 20260905211517 | 74 | 68 | 2.0 | 5.0 | 0.00 | 0.00 | 0.00 | 80 | 1019.7 |
| 20260905210517 | 75 | 68 | 3.0 | 7.0 | 0.00 | 0.00 | 0.00 | 80 | 1019.9 |
| 20260905205537 | 73 | 0.0 | 1.0 | 0.00 | 0.00 | 0.00 | 84 | 1019.8 | |
| 20260905204517 | 73 | 45 | 1.0 | 4.0 | 0.00 | 0.00 | 0.00 | 83 | 1019.8 |
| 20260905203517 | 75 | 45 | 2.0 | 9.0 | 0.00 | 0.00 | 0.00 | 81 | 1019.7 |
| 20260905202537 | 75 | 23 | 1.0 | 4.0 | 0.00 | 0.00 | 0.00 | 79 | 1019.7 |
| 20260905201517 | 76 | 68 | 1.0 | 6.0 | 0.00 | 0.00 | 0.00 | 81 | 1019.8 |
| 20260905200517 | 74 | 68 | 4.0 | 6.0 | 0.00 | 0.00 | 0.00 | 82 | 1019.8 |
| 20260905195517 | 76 | 23 | 3.0 | 7.0 | 0.00 | 0.00 | 0.00 | 84 | 1019.8 |
| 20260905194538 | 74 | 68 | 3.0 | 7.0 | 0.00 | 0.00 | 0.00 | 82 | 1019.8 |
| 20260905193517 | 75 | 45 | 3.0 | 6.0 | 0.00 | 0.00 | 0.00 | 82 | 1019.9 |
| 20260905192517 | 74 | 45 | 4.0 | 7.0 | 0.00 | 0.00 | 0.00 | 81 | 1019.9 |
| 20260905191517 | 74 | 68 | 1.0 | 4.0 | 0.00 | 0.00 | 0.00 | 84 | 1020.0 |
| 20260905190517 | 73 | 45 | 3.0 | 7.0 | 0.00 | 0.00 | 0.00 | 85 | 1019.9 |
| 20260905185517 | 73 | 68 | 4.0 | 8.0 | 0.00 | 0.00 | 0.00 | 85 | 1019.9 |
| 20260905184517 | 73 | 45 | 4.0 | 8.0 | 0.00 | 0.00 | 0.00 | 84 | 1020.1 |
| 20260905183517 | 72 | 45 | 3.0 | 6.0 | 0.00 | 0.00 | 0.00 | 88 | 1020.1 |
| 20260905182517 | 71 | 45 | 1.0 | 3.0 | 0.00 | 0.00 | 0.00 | 89 | 1020.1 |
| 20260905181537 | 71 | 68 | 2.0 | 5.0 | 0.00 | 0.00 | 0.00 | 88 | 1020.2 |
| 20260905180517 | 71 | 45 | 3.0 | 6.0 | 0.00 | 0.00 | 0.00 | 88 | 1020.0 |
| 20260905175517 | 71 | 45 | 4.0 | 7.0 | 0.00 | 0.00 | 0.00 | 89 | 1020.0 |
| 20260905174538 | 71 | 45 | 5.0 | 9.0 | 0.00 | 0.00 | 0.00 | 89 | 1020.0 |
| 20260905173539 | 71 | 23 | 4.0 | 8.0 | 0.00 | 0.00 | 0.00 | 90 | 1020.0 |
| 20260905172517 | 70 | 45 | 5.0 | 9.0 | 0.00 | 0.00 | 0.00 | 90 | 1020.1 |
| 20260905171518 | 71 | 45 | 4.0 | 8.0 | 0.00 | 0.00 | 0.00 | 90 | 1020.0 |
| 20260905170517 | 70 | 45 | 4.0 | 8.0 | 0.00 | 0.00 | 0.00 | 91 | 1020.2 |
| 20260905165517 | 70 | 45 | 5.0 | 8.0 | 0.00 | 0.00 | 0.00 | 92 | 1020.3 |
| 20260905164537 | 70 | 45 | 4.0 | 6.0 | 0.00 | 0.00 | 0.00 | 92 | 1020.4 |
| 20260905163517 | 70 | 45 | 5.0 | 9.0 | 0.00 | 0.00 | 0.00 | 92 | 1020.2 |
| 20260905162517 | 70 | 45 | 5.0 | 9.0 | 0.00 | 0.00 | 0.00 | 92 | 1020.2 |
| 20260905161516 | 70 | 45 | 5.0 | 8.0 | 0.00 | 0.00 | 0.00 | 92 | 1020.2 |
| 20260905160517 | 70 | 45 | 5.0 | 9.0 | 0.00 | 0.00 | 0.00 | 92 | 1020.2 |
| 20260905155516 | 70 | 45 | 5.0 | 10.0 | 0.00 | 0.00 | 0.00 | 92 | 1020.0 |
| 20260905154537 | 70 | 45 | 6.0 | 9.0 | 0.00 | 0.00 | 0.00 | 92 | 1019.9 |
| 20260905153517 | 70 | 45 | 6.0 | 10.0 | 0.00 | 0.00 | 0.00 | 92 | 1019.9 |
| 20260905152516 | 70 | 45 | 6.0 | 11.0 | 0.00 | 0.00 | 0.00 | 93 | 1019.7 |
| 20260905151516 | 70 | 45 | 7.0 | 12.0 | 0.00 | 0.00 | 0.00 | 93 | 1019.9 |
| 20260905150517 | 70 | 45 | 6.0 | 9.0 | 0.00 | 0.00 | 0.00 | 93 | 1019.7 |
| 20260905145516 | 69 | 45 | 6.0 | 10.0 | 0.00 | 0.00 | 0.00 | 94 | 1019.3 |
| 20260905144517 | 69 | 45 | 6.0 | 12.0 | 0.00 | 0.00 | 0.00 | 94 | 1019.2 |
| 20260905143516 | 68 | 45 | 7.0 | 13.0 | 0.00 | 0.00 | 0.00 | 95 | 1019.0 |
| 20260905142536 | 68 | 45 | 7.0 | 14.0 | 0.00 | 0.00 | 0.00 | 95 | 1018.9 |
| 20260905141517 | 68 | 23 | 5.0 | 9.0 | 0.00 | 0.00 | 0.00 | 96 | 1019.0 |
| 20260905140517 | 67 | 23 | 5.0 | 9.0 | 0.00 | 0.00 | 0.00 | 97 | 1019.2 |
| 20260905135517 | 67 | 23 | 4.0 | 9.0 | 0.00 | 0.00 | 0.00 | 97 | 1019.1 |
| 20260905134537 | 67 | 23 | 3.0 | 7.0 | 0.00 | 0.00 | 0.00 | 97 | 1019.4 |
| 20260905133516 | 67 | 338 | 3.0 | 5.0 | 0.00 | 0.00 | 0.00 | 98 | 1019.5 |
| 20260905132516 | 67 | 23 | 2.0 | 6.0 | 0.00 | 0.00 | 0.00 | 97 | 1019.3 |
| 20260905131517 | 66 | 0 | 2.0 | 6.0 | 0.00 | 0.00 | 0.00 | 97 | 1019.2 |
| 20260905130517 | 67 | 23 | 2.0 | 4.0 | 0.00 | 0.00 | 0.00 | 98 | 1019.1 |
| 20260905125516 | 67 | 23 | 4.0 | 8.0 | 0.00 | 0.00 | 0.00 | 98 | 1018.9 |
| 20260905124516 | 67 | 23 | 3.0 | 7.0 | 0.00 | 0.00 | 0.00 | 98 | 1018.8 |
| 20260905123516 | 67 | 23 | 3.0 | 6.0 | 0.00 | 0.00 | 0.00 | 98 | 1018.8 |
| 20260905122516 | 67 | 23 | 4.0 | 8.0 | 0.00 | 0.00 | 0.00 | 98 | 1018.5 |
| 20260905121516 | 66 | 45 | 3.0 | 6.0 | 0.00 | 0.00 | 0.00 | 98 | 1018.3 |
| 20260905120517 | 66 | 23 | 4.0 | 6.0 | 0.00 | 0.00 | 0.00 | 98 | 1018.3 |
| 20260905115516 | 66 | 23 | 3.0 | 7.0 | 0.00 | 0.00 | 0.00 | 98 | 1018.1 |
| 20260905114516 | 66 | 23 | 5.0 | 8.0 | 0.00 | 0.00 | 0.00 | 98 | 1018.1 |
| 20260905113516 | 66 | 23 | 5.0 | 9.0 | 0.00 | 0.00 | 0.00 | 98 | 1017.9 |
| 20260905112516 | 66 | 23 | 4.0 | 7.0 | 0.00 | 0.00 | 0.00 | 98 | 1017.9 |
| 20260905111517 | 66 | 0 | 2.0 | 5.0 | 0.00 | 0.01 | 0.00 | 98 | 1017.8 |
| 20260905110516 | 66 | 23 | 3.0 | 7.0 | 0.00 | 0.03 | 0.00 | 98 | 1017.9 |
| 20260905105516 | 66 | 45 | 3.0 | 7.0 | 0.00 | 0.03 | 0.00 | 98 | 1017.8 |
| 20260905104536 | 66 | 23 | 3.0 | 5.0 | 0.00 | 0.04 | 0.00 | 98 | 1017.8 |
| 20260905103516 | 67 | 23 | 3.0 | 6.0 | 0.00 | 0.08 | 0.00 | 98 | 1017.8 |
| 20260905102516 | 66 | 23 | 4.0 | 6.0 | 0.00 | 0.12 | 0.00 | 98 | 1017.8 |
| 20260905101516 | 66 | 23 | 3.0 | 7.0 | 0.00 | 0.13 | 0.00 | 98 | 1017.9 |
| 20260905100516 | 67 | 23 | 2.0 | 5.0 | 0.00 | 0.34 | 0.00 | 98 | 1017.9 |
| 20260905095516 | 67 | 23 | 3.0 | 9.0 | 0.00 | 0.38 | 0.00 | 98 | 1017.9 |
| 20260905094516 | 67 | 23 | 3.0 | 7.0 | 0.00 | 0.41 | 0.00 | 98 | 1017.7 |
| 20260905093516 | 67 | 0 | 3.0 | 7.0 | 0.00 | 0.57 | 0.00 | 98 | 1017.7 |
| 20260905092516 | 67 | 0 | 4.0 | 8.0 | 0.00 | 0.69 | 0.00 | 98 | 1017.5 |
| 20260905091516 | 67 | 23 | 5.0 | 9.0 | 0.00 | 0.85 | 0.00 | 98 | 1017.4 |
| 20260905090516 | 67 | 45 | 4.0 | 8.0 | 0.00 | 0.99 | 0.00 | 98 | 1017.5 |
| 20260905085516 | 67 | 23 | 4.0 | 7.0 | 0.00 | 1.05 | 0.00 | 98 | 1017.7 |